カタログに戻る

BREEZE-M R/B

運用中HEO
NORAD 36102·ROCKET BODY·🇷🇺 Russia

打ち上げ Nov 24, 2009 から Baikonur Cosmodrome

Loading…

次のパス (今後24時間)

TLE

最新Source: Space-Track

元期: Sep 13, 2026, 16:19 UTC

1 36102U 09065B   26256.68045428 -.00000046  00000-0  00000-0 0  9991
2 36102  20.3267 207.7762 5900604 279.1332 327.4892  2.20879974135389

AllMySatでBREEZE-M R/Bをリアルタイム追跡

Download on the App Store